Location: Gro�sch�nbrunn
(49.5760°N, 11.8868°E)
Time: 12:54:29
(UTC+00:00)

Abrixas rocket - Pass Details

Date: 18 September 2020
Orbit: 329 x 336 km, 48.4° (Epoch: 22 October)

Event Time Altitude Azimuth Distance (km) Brightness Sun altitude
Rises 17:58:44 0° 246° (WSW) 2,095 6.8 -7.3°
Reaches altitude 10° 18:00:45 10° 240° (WSW) 1,258 5.5 -7.6°
Maximum altitude 18:03:28 47° 165° (SSE) 451 2.2 -8.1°
Enters shadow 18:05:53 12° 91° (E) 1,137 3.8 -8.4°
